Wind_Speed
5 4 3 4 6 6 8 9 10 9 7 6 6 6 5 5 6 8 8 10 11 11 12 11 12 12 13
6 5 3 4 4 3 3 4 4 3 3 3 4 5 7 8 9 10 10 10 11 11 11 12 12 13 13
6 6 3 4 4 4 3 3 4 5 6 8 9 10 11 11 10 9 10 10 10 10 11 12 12 12 12
5 5 5 5 5 3 2 4 5 7 10 12 11 12 12 11 11 11 10 10 10 10 10 11 13 14 14
5 4 4 3 3 2 1 5 8 8 5 6 7 10 11 10 8 8 8 9 10 11 12 13 13 14 13
4 3 3 3 3 2 2 2 2 2 7 8 6 3 4 6 7 11 14 15 12 8 9 10 12 14 15
3 2 2 3 3 3 4 3 3 5 8 4 3 3 4 9 15 16 12 7 5 6 10 11 12 14 16
3 3 2 2 3 3 3 5 6 4 2 3 5 6 10 8 2 2 2 8 5 10 12 13 16 17 17
3 2 1 1 4 4 4 3 2 1 3 2 4 9 8 3 3 5 6 9 12 15 18 18 17 17 16
3 4 4 4 4 4 4 3 2 2 2 6 4 6 5 4 6 7 12 14 9 21 19 16 13 12 12
2 3 4 6 5 3 3 3 3 6 4 5 5 6 4 7 10 13 12 8 22 19 16 11 8 10 14
3 4 5 6 5 5 7 7 7 10 11 9 6 6 9 13 11 7 14 18 16 17 11 12 17 16 15
5 5 6 5 5 7 6 6 9 12 12 11 13 13 13 14 16 19 18 15 24 11 20 18 18 17 19
5 5 5 5 6 6 7 8 10 11 6 8 10 12 16 17 18 26 21 13 24 23 21 19 18 17 19
7 7 7 7 7 7 9 9 11 13 12 12 12 15 19 22 21 22 24 22 22 22 19 20 23 20 19
11 9 8 8 9 10 10 9 12 14 16 13 16 15 12 16 19 22 17 18 19 19 18 19 27 21 17
12 13 12 11 10 10 11 12 13 14 15 13 14 9 10 9 15 17 20 18 20 24 21 19 22 29 22
Wind_Direction
186 208 211 224 244 243 245 247 250 253 254 253 266 276 279 278 278 286 288 290 291 292 292 290 291 289 293
175 178 190 191 210 208 210 226 245 248 245 266 263 248 261 273 287 287 284 281 285 285 287 291 294 294 296
146 155 149 162 176 193 206 237 261 259 257 256 258 266 271 279 284 281 277 282 287 289 288 291 294 295 295
113 130 152 175 190 196 230 261 270 271 273 274 272 270 268 268 278 275 272 278 284 292 297 299 295 292 291
125 144 150 165 197 206 258 286 292 284 289 281 278 278 275 272 267 268 274 281 288 291 289 293 294 291 291
149 151 157 174 188 216 269 298 269 291 331 307 299 297 265 259 265 274 271 273 281 286 283 286 286 286 289
143 153 165 198 199 225 261 258 265 300 321 288 305 317 277 279 283 280 269 242 210 300 301 299 293 291 289
111 138 168 185 214 233 258 282 292 296 329 277 305 305 312 303 287 29 149 186 261 312 308 302 297 292 287
109 111 171 271 255 256 264 270 283 223 314 297 311 320 311 251 211 166 191 239 278 300 308 302 296 293 288
228 242 227 185 213 235 237 242 265 285 224 341 319 348 310 275 208 240 302 290 266 309 307 301 294 293 288
231 206 192 205 220 227 262 269 255 265 281 325 290 310 294 304 293 287 294 287 309 312 313 302 283 284 290
199 189 196 206 218 259 272 275 273 268 280 273 268 272 288 293 285 293 300 300 304 309 297 308 300 294 279
200 208 214 222 254 281 290 282 278 277 277 274 269 274 270 265 278 289 308 303 302 277 304 300 298 292 294
220 218 215 241 263 279 284 294 294 291 269 284 282 283 279 269 269 278 283 275 292 294 300 298 296 291 290
217 228 237 251 265 278 284 291 284 292 295 301 301 298 286 282 276 272 280 280 284 294 301 297 298 296 291
236 241 248 256 272 281 283 281 288 291 293 301 312 317 309 299 278 275 280 282 298 300 297 292 295 301 294
244 253 259 259 266 272 277 277 279 280 284 294 302 292 292 291 290 266 265 284 295 294 292 285 282 292 297
Height
840 842 843 844 845 846 848 849 849 849 850 850 851 852 853 853 852 852 851 851 851 851 851 851 851 851 850
838 840 843 843 844 846 846 846 847 848 848 849 850 850 850 849 849 849 848 848 848 848 848 848 848 847 846
836 838 842 842 844 845 845 846 846 846 846 847 847 847 846 846 845 845 845 844 844 845 845 845 844 844 843
836 837 840 842 843 844 844 844 845 845 845 844 844 843 843 842 842 842 841 841 841 841 841 841 841 841 840
835 838 840 842 843 842 843 843 843 842 842 841 840 839 839 838 838 838 838 837 838 838 838 838 838 837 836
835 837 838 839 840 840 842 842 842 840 840 839 837 836 835 836 835 834 834 834 834 835 834 833 833 832 831
834 835 837 837 838 839 840 841 841 840 838 836 834 834 834 832 831 829 828 829 832 831 830 829 828 827 826
833 834 835 836 837 838 839 839 838 837 836 835 833 832 831 828 827 827 827 829 829 828 826 825 823 822 820
833 834 835 835 836 837 837 838 837 837 835 834 833 830 827 826 826 826 826 826 825 825 822 819 818 816 814
832 833 834 834 834 835 836 836 836 835 835 835 833 831 828 825 824 825 824 823 821 820 817 814 813 812 810
830 831 832 833 834 834 834 834 834 835 835 834 832 832 830 827 822 820 820 819 817 814 811 808 808 808 806
829 829 830 832 833 833 833 832 832 833 832 832 831 830 830 827 822 817 817 814 812 809 807 806 804 802 801
827 828 829 830 831 831 830 830 830 829 829 828 827 827 827 825 820 815 813 807 806 804 804 801 798 796 793
825 827 827 828 829 828 828 828 827 826 825 824 824 822 820 818 817 810 810 809 801 800 798 794 792 790 787
823 824 825 826 826 826 826 825 825 823 822 820 819 817 814 812 809 805 802 799 796 794 792 788 784 782 780
821 821 822 823 823 823 823 822 821 820 818 816 814 812 809 804 801 798 797 795 792 789 787 784 776 774 773
817 818 818 819 819 819 818 818 816 815 813 812 811 810 808 803 798 795 793 791 788 783 781 778 773 766 766